Wind_Speed
17 22 18 18 21 20 18 23 30 29 31 54 60 60 62 60 63 62 60 57 57 49 40 37 41 47 47 42 33 28 43 40
10 12 14 14 18 19 17 20 30 30 29 39 63 65 56 59 60 65 61 65 51 44 42 44 51 47 47 39 38 39 39 44
1 10 14 15 18 16 19 16 24 32 28 34 41 50 59 59 54 50 57 58 52 49 43 50 49 46 45 40 41 43 39 42
10 13 15 16 19 15 14 7 16 27 30 25 32 35 39 39 47 55 55 49 48 46 48 48 48 44 40 41 41 40 43 45
16 14 15 15 18 16 13 11 11 24 28 28 23 26 27 29 32 33 35 36 38 48 49 45 45 45 40 43 48 47 50 52
20 16 15 15 15 17 15 13 11 11 34 30 26 25 29 34 32 29 28 33 39 44 45 44 41 39 45 48 49 48 51 51
21 16 15 15 13 14 17 17 12 10 12 38 33 32 30 38 36 31 31 38 47 50 48 47 45 47 47 49 51 53 55 55
22 22 18 16 18 15 15 16 16 12 10 12 40 41 36 40 36 39 39 40 46 52 47 47 48 52 54 53 55 59 60 60
25 25 23 21 21 20 17 16 16 17 13 10 11 35 43 41 43 44 41 38 40 46 50 51 52 52 57 58 60 60 62 63
29 30 29 26 22 22 23 18 20 17 17 19 14 14 25 32 40 50 47 49 51 52 52 52 57 62 61 62 66 68 66 68
40 31 28 29 26 26 25 25 19 21 20 18 22 23 21 20 18 26 48 52 54 56 56 58 61 62 65 68 67 69 71 74
38 31 31 33 32 31 28 29 26 22 20 21 19 19 22 25 22 21 27 35 45 53 59 63 63 66 67 71 73 73 74 73
40 38 35 35 37 35 34 31 33 28 24 25 26 26 23 20 26 28 28 27 29 36 40 38 42 50 62 72 76 76 79 77
44 43 43 38 38 37 39 37 36 38 35 33 33 34 32 29 27 27 29 32 32 32 33 32 33 35 37 40 43 46 48 52
50 44 45 46 46 46 43 38 36 38 44 47 40 34 33 33 32 35 36 33 33 38 42 42 40 40 39 37 38 39 40 40
55 52 54 50 50 48 45 43 42 40 40 46 46 44 38 39 39 40 42 41 42 41 38 41 44 45 46 46 45 43 42 41
50 50 52 51 49 51 50 48 45 46 46 45 44 49 47 45 45 46 44 49 48 46 49 48 50 46 46 53 55 54 53 52
54 52 50 50 48 48 51 52 53 49 50 50 53 55 55 53 51 50 49 48 50 51 56 56 56 55 54 54 53 57 55 56
57 57 56 55 52 51 51 52 53 54 52 51 57 60 58 60 62 57 56 58 58 59 60 59 59 55 60 61 63 60 60 63
Wind_Direction
265 286 292 303 301 307 285 255 239 228 225 214 220 223 222 225 231 238 246 253 250 257 254 242 211 204 207 208 206 227 231 259
271 297 299 298 305 316 294 274 240 223 229 222 218 226 232 231 235 236 244 247 249 260 240 222 210 209 213 215 227 230 230 248
145 316 346 331 303 319 327 297 232 230 226 232 227 221 227 232 236 234 241 247 245 253 220 206 207 213 217 223 227 236 235 245
253 292 317 321 327 310 328 306 248 249 235 241 232 225 219 224 224 225 235 240 237 224 210 216 218 223 222 222 229 239 248 248
253 277 291 317 334 310 307 320 260 244 244 238 239 219 224 225 215 228 233 224 228 219 217 227 235 231 236 232 234 246 253 258
259 265 282 301 315 333 309 305 321 266 241 245 246 243 223 227 232 236 230 224 221 225 227 235 233 235 237 238 242 252 262 269
252 261 275 286 300 316 327 307 307 297 263 237 242 241 245 227 235 236 239 221 220 222 233 236 242 244 242 248 254 256 261 265
247 257 268 279 285 297 316 330 301 312 299 253 234 239 245 239 236 237 238 237 229 223 235 236 243 248 248 250 254 255 260 265
245 256 253 266 288 292 298 310 324 298 294 298 255 229 239 244 242 238 238 241 244 242 241 240 243 246 246 253 256 257 263 265
247 250 248 265 281 293 294 299 308 312 300 283 288 279 260 248 246 246 246 244 246 251 252 254 255 255 257 258 258 261 263 265
242 247 254 261 269 284 290 289 284 298 300 297 283 286 281 271 271 246 242 245 249 249 252 257 257 256 258 263 266 268 269 272
246 249 254 254 264 276 285 285 280 282 288 291 295 296 289 276 267 264 261 252 243 245 250 252 255 258 260 262 264 265 267 267
248 253 252 253 254 264 273 280 280 274 271 277 283 288 288 288 267 268 271 265 261 260 262 259 257 259 260 261 262 265 265 267
250 250 251 251 256 264 269 275 282 276 270 272 277 279 282 286 287 285 277 269 269 270 269 265 267 268 270 271 272 271 271 270
252 250 255 252 252 257 262 269 277 282 279 278 271 270 278 287 288 286 289 289 284 278 275 272 275 272 269 272 273 274 275 275
258 255 252 254 257 257 259 262 270 270 273 273 272 274 274 279 282 286 287 288 286 287 291 282 278 280 278 276 273 272 273 276
262 262 258 257 256 261 262 264 271 274 272 268 273 272 277 279 278 282 286 282 278 284 291 289 291 288 283 279 278 277 277 277
261 262 265 265 263 261 262 266 272 272 276 267 259 264 268 275 277 278 281 284 284 282 287 289 289 289 289 290 285 277 276 273
257 260 262 264 267 265 263 265 270 274 273 269 262 265 267 269 275 274 277 280 283 282 283 284 285 282 281 288 291 291 279 275
Height
10640 10637 10636 10632 10628 10624 10621 10621 10625 10629 10633 10638 10640 10642 10644 10649 10652 10655 10658 10660 10667 10671 10673 10676 10680 10684 10688 10692 10694 10699 10703 10704
10635 10633 10631 10629 10624 10620 10616 10615 10617 10623 10628 10631 10635 10636 10638 10642 10646 10650 10656 10656 10660 10661 10666 10669 10673 10678 10681 10685 10688 10691 10695 10699
10630 10628 10626 10625 10622 10617 10613 10608 10611 10616 10622 10624 10626 10630 10633 10636 10640 10643 10648 10648 10653 10655 10658 10662 10665 10671 10675 10677 10681 10684 10687 10689
10625 10624 10622 10622 10619 10616 10613 10610 10610 10611 10616 10619 10621 10623 10627 10630 10634 10638 10642 10643 10645 10647 10651 10654 10660 10664 10668 10672 10675 10677 10677 10678
10618 10620 10618 10618 10616 10613 10611 10609 10608 10607 10609 10614 10617 10620 10622 10626 10630 10633 10634 10635 10637 10641 10646 10651 10656 10661 10662 10665 10668 10669 10670 10670
10611 10614 10614 10613 10613 10611 10609 10607 10606 10604 10604 10607 10611 10614 10618 10620 10624 10626 10628 10629 10633 10636 10641 10645 10650 10653 10657 10659 10660 10661 10660 10661
10604 10608 10609 10609 10609 10608 10607 10605 10603 10602 10601 10601 10605 10609 10611 10614 10617 10619 10623 10624 10628 10632 10636 10639 10642 10645 10647 10649 10650 10650 10650 10651
10599 10600 10602 10605 10604 10605 10604 10603 10602 10600 10598 10598 10599 10603 10606 10608 10610 10613 10615 10619 10621 10624 10627 10630 10633 10636 10638 10639 10639 10639 10640 10639
10594 10595 10596 10598 10600 10600 10601 10600 10600 10599 10597 10595 10594 10596 10599 10601 10604 10606 10608 10610 10614 10617 10620 10621 10623 10624 10626 10628 10627 10628 10628 10626
10589 10588 10590 10591 10593 10595 10596 10597 10595 10596 10595 10594 10593 10592 10592 10594 10595 10597 10599 10602 10605 10607 10610 10611 10612 10613 10614 10616 10617 10616 10617 10614
10578 10583 10585 10587 10587 10589 10590 10591 10591 10590 10590 10589 10589 10589 10589 10588 10587 10587 10590 10592 10594 10596 10598 10600 10601 10602 10602 10602 10602 10601 10602 10599
10572 10579 10581 10583 10582 10583 10584 10585 10585 10585 10584 10583 10583 10584 10583 10583 10582 10581 10579 10581 10582 10585 10586 10587 10587 10588 10588 10587 10586 10586 10584 10584
10562 10567 10573 10573 10573 10575 10576 10577 10577 10577 10578 10576 10576 10576 10577 10578 10577 10575 10573 10573 10573 10572 10573 10574 10573 10573 10573 10572 10571 10571 10569 10566
10551 10556 10561 10566 10566 10565 10566 10567 10567 10568 10568 10569 10567 10567 10567 10570 10570 10568 10567 10567 10567 10565 10564 10564 10563 10562 10560 10558 10557 10556 10555 10553
10540 10549 10550 10556 10557 10558 10558 10559 10559 10558 10556 10556 10557 10557 10559 10560 10561 10560 10559 10559 10557 10557 10556 10555 10553 10553 10550 10547 10546 10544 10542 10540
10529 10538 10537 10542 10545 10548 10549 10548 10548 10550 10549 10546 10544 10547 10548 10549 10549 10550 10550 10549 10546 10545 10545 10543 10542 10540 10537 10537 10536 10534 10531 10529
10515 10518 10523 10530 10533 10533 10536 10539 10540 10540 10540 10541 10538 10535 10534 10535 10536 10537 10538 10536 10534 10534 10532 10532 10531 10528 10524 10523 10521 10520 10519 10516
10502 10502 10506 10511 10518 10522 10522 10522 10524 10527 10527 10525 10526 10526 10525 10522 10521 10524 10524 10523 10523 10522 10520 10519 10517 10514 10509 10508 10506 10508 10506 10503
10486 10490 10493 10496 10500 10503 10506 10508 10509 10509 10511 10512 10508 10510 10513 10512 10512 10511 10507 10506 10508 10506 10505 10504 10504 10501 10495 10492 10490 10491 10490 10489